Back to catalog

H-2A R/B

AliveSSO
NORAD 64695·ROCKET BODY·🇯🇵 Japan

Launched Jun 28, 2025 from Tanegashima Space Center

Loading…

Next Passes (next 24 hours)

TLE

FreshSource: Space-Track

Epoch: Sep 13, 2026, 20:30 UTC

1 64695U 25141B   26256.85418496  .00001266  00000-0  12432-3 0  9999
2 64695  98.0950 209.8783 0088881 254.1941 104.9464 14.91277406 65841

Track H-2A R/B in real time with AllMySat

Download on the App Store